Change the Weather History Date:

Saturday, August 17, 2013

  Actual Average Record
Temperature  
Mean Temperature 74 °F 68 °F  
Max Temperature 92 °F 84 °F 99 °F (2001)
Min Temperature 56 °F 52 °F 34 °F (2002)
Degree Days  
Heating Degree Days 0 1  
Month to date heating degree days 8 15  
Since 1 June heating degree days 129 178  
Since 1 July heating degree days 16 45  
Cooling Degree Days 9 5  
Month to date cooling degree days 71 104  
Year to date cooling degree days 267 325  
Since 1 June cooling degree days 260 314  
Growing Degree Days 23 (Base 50)    
Moisture  
Dew Point 50 °F    
Average Humidity 50    
Maximum Humidity 80    
Minimum Humidity 20    
Precipitation  
Precipitation T in 0.04 in 0.88 in (1892)
Month to date precipitation 0.93 0.60  
Year to date precipitation 14.89 8.16  
Snow  
Snow 0.00 in 0.00 in 0.00 in (1999)
Month to date snowfall 0.0 0.0  
Since 1 June snowfall 0.0 0.0  
Since 1 July snowfall 0.0 0.0  
Snow Depth 0.00 in    
Sea Level Pressure  
Sea Level Pressure 29.87 in    
Wind  
Wind Speed 8 mph (WSW)    
Max Wind Speed 26 mph    
Max Gust Speed 31 mph    
Visibility 10 miles    
Events      
T = Trace of Precipitation, MM = Missing Value Source: NWS Daily Summary

Daily Weather History Graph

Daily Weather History Graph

Search for Another Location

Airport or City:

Trip Planner

Search our weather history database for the weather conditions in past years. The results will help you decide how hot, cold, wet, or windy it might be!

Date:

Astronomy

Aug. 17, 2013 Rise Set
Actual Time 6:15 AM MDT 8:29 PM MDT
Civil Twilight 5:41 AM MDT 9:03 PM MDT
Nautical Twilight 4:58 AM MDT 9:46 PM MDT
Astronomical Twilight 4:09 AM MDT 10:34 PM MDT
Moon 5:55 PM MDT (8/17) 2:13 AM MDT (8/17)
Length of Visible Light 15h 22m
Length of Day
14h 13m
Waxing Gibbous, 85% of the Moon is Illuminated
Aug 17
Waxing Gibbous
Aug 20
Full
Aug 28
Last Quarter
Sep 5
New
Sep 12
First Quarter

Hourly Weather History & Observations

Time (MDT) Temp. Dew Point Humidity Pressure Visibility Wind Dir Wind Speed Gust Speed Precip Events Conditions
12:53 AM 66.0 °F 55.0 °F 68% 29.86 in 10.0 mi WSW 5.8 mph - N/A   Clear
1:53 AM 64.0 °F 54.0 °F 70% 29.86 in 10.0 mi Calm Calm - N/A   Clear
2:53 AM 63.0 °F 54.0 °F 72% 29.87 in 10.0 mi Calm Calm - N/A   Clear
3:53 AM 59.0 °F 53.1 °F 81% 29.88 in 10.0 mi West 3.5 mph - N/A   Clear
4:53 AM 57.9 °F 52.0 °F 81% 29.88 in 10.0 mi SSW 3.5 mph - N/A   Clear
5:53 AM 57.0 °F 51.1 °F 81% 29.89 in 10.0 mi WSW 3.5 mph - N/A   Clear
6:53 AM 57.0 °F 51.1 °F 81% 29.91 in 10.0 mi Calm Calm - N/A   Clear
7:53 AM 62.1 °F 53.1 °F 72% 29.92 in 10.0 mi West 5.8 mph - N/A   Clear
8:53 AM 72.0 °F 53.1 °F 51% 29.92 in 10.0 mi SW 9.2 mph - N/A   Clear
9:53 AM 79.0 °F 50.0 °F 36% 29.92 in 10.0 mi SW 15.0 mph - N/A   Clear
10:53 AM 82.0 °F 48.9 °F 31% 29.92 in 10.0 mi SW 10.4 mph - N/A   Clear
11:53 AM 84.0 °F 48.9 °F 29% 29.91 in 10.0 mi Variable 5.8 mph - N/A   Clear
12:53 PM 87.1 °F 45.0 °F 23% 29.89 in 10.0 mi West 18.4 mph 23.0 mph N/A   Clear
1:53 PM 88.0 °F 46.9 °F 24% 29.87 in 10.0 mi WNW 11.5 mph - N/A   Partly Cloudy
2:53 PM 91.0 °F 44.1 °F 20% 29.85 in 10.0 mi West 23.0 mph 31.1 mph N/A   Clear
3:53 PM 91.0 °F 45.0 °F 20% 29.85 in 10.0 mi WNW 15.0 mph - N/A   Partly Cloudy
4:53 PM 89.1 °F 44.1 °F 21% 29.83 in 10.0 mi West 11.5 mph 20.7 mph N/A   Clear
5:53 PM 90.0 °F 46.0 °F 22% 29.82 in 10.0 mi WNW 10.4 mph - N/A   Clear
6:53 PM 86.0 °F 48.9 °F 28% 29.82 in 10.0 mi WNW 3.5 mph - N/A   Clear
7:53 PM 82.9 °F 50.0 °F 32% 29.82 in 10.0 mi North 3.5 mph - N/A   Partly Cloudy
8:53 PM 70.0 °F 53.1 °F 55% 29.84 in 10.0 mi South 5.8 mph - N/A   Clear
9:53 PM 70.0 °F 50.0 °F 49% 29.85 in 10.0 mi Calm Calm - 0.00 in   Partly Cloudy
10:53 PM 66.0 °F 50.0 °F 56% 29.86 in 10.0 mi South 8.1 mph - 0.00 in   Clear
11:53 PM 62.1 °F 51.1 °F 67% 29.87 in 10.0 mi WSW 5.8 mph - 0.00 in   Clear